,,,PA_Meas_PMT16A,,PR_Meas_QMR101_102,,RH_Meas_QMH101,,SR_Meas_QMS101,,TA_Meas_QMH101,,GenWind,,GenWind,
date,time,status,PA,status,PR,status,RH,status,SR,status,TA,status,DirAvg,status,SpdAvg,
2012-04-18, 00:00:04,VALID,999.349,VALID,0,VALID,92.9822,VALID,0,VALID,24.0525,VALID,314,VALID,0,
2012-04-18, 00:01:04,VALID,999.28,VALID,0,VALID,92.9288,VALID,0,VALID,24.0329,VALID,314,VALID,0,
2012-04-18, 00:02:04,VALID,999.298,VALID,0,VALID,92.9211,VALID,0,VALID,24.0329,VALID,314,VALID,0,
2012-04-18, 00:03:04,VALID,999.205,VALID,0,VALID,92.9364,VALID,0,VALID,24.0134,VALID,314,VALID,0,
2012-04-18, 00:04:04,VALID,999.159,VALID,0,VALID,93.0051,VALID,0,VALID,24.0329,VALID,314,VALID,0,
2012-04-18, 00:05:04,VALID,999.131,VALID,0,VALID,93.0508,VALID,0,VALID,24.0116,VALID,314,VALID,0.0175781,
2012-04-18, 00:06:04,VALID,999.074,VALID,0,VALID,93.089,VALID,0,VALID,24.0116,VALID,314,VALID,0,
2012-04-18, 00:07:04,VALID,999.084,VALID,0,VALID,93.089,VALID,0,VALID,24.0329,VALID,314,VALID,0,
2012-04-18, 00:08:04,VALID,999.048,VALID,0,VALID,93.0203,VALID,0,VALID,24.0329,VALID,314,VALID,0,
2012-04-18, 00:09:04,VALID,999.077,VALID,0,VALID,92.9745,VALID,0,VALID,24.0116,VALID,314,VALID,0,
2012-04-18, 00:10:04,VALID,999.097,VALID,0,VALID,93.0203,VALID,0,VALID,24.0134,VALID,314,VALID,0,
2012-04-18, 00:11:04,VALID,999.118,VALID,0,VALID,93.0051,VALID,0,VALID,23.9726,VALID,314,VALID,0,
2012-04-18, 00:12:04,VALID,999.091,VALID,0,VALID,92.9898,VALID,0,VALID,23.9939,VALID,314,VALID,0.383594,
2012-04-18, 00:13:04,VALID,999.08,VALID,0,VALID,92.9288,VALID,0,VALID,23.9744,VALID,314,VALID,0.583203,
2012-04-18, 00:14:04,VALID,999.091,VALID,0,VALID,92.8601,VALID,0,VALID,23.9354,VALID,314,VALID,0.657031,
2012-04-18, 00:15:04,VALID,999.085,VALID,0,VALID,92.7838,VALID,0,VALID,23.9354,VALID,314,VALID,0.587109,
2012-04-18, 00:16:04,VALID,999.067,VALID,0,VALID,92.822,VALID,0,VALID,23.9159,VALID,314,VALID,0.648828,
2012-04-18, 00:17:04,VALID,999.062,VALID,0,VALID,92.7838,VALID,0,VALID,23.8555,VALID,314,VALID,0.510156,
2012-04-18, 00:18:04,VALID,999.062,VALID,0,VALID,92.9059,VALID,0,VALID,23.8768,VALID,314,VALID,0.327344,
2012-04-18, 00:19:04,VALID,999.075,VALID,0,VALID,93.0432,VALID,0,VALID,23.8768,VALID,314,VALID,0.311328,
2012-04-18, 00:20:04,VALID,999.059,VALID,0,VALID,93.0356,VALID,0,VALID,23.836,VALID,314,VALID,0.5125,
2012-04-18, 00:21:04,VALID,999.054,VALID,0,VALID,93.2187,VALID,0,VALID,23.836,VALID,314,VALID,0.477734,
2012-04-18, 00:22:04,VALID,999.045,VALID,0,VALID,93.3942,VALID,0,VALID,23.8768,VALID,314,VALID,0.379297,
2012-04-18, 00:23:04,VALID,999.026,VALID,0,VALID,93.4628,VALID,0,VALID,23.8963,VALID,314,VALID,0.333594,
2012-04-18, 00:24:04,VALID,999.024,VALID,0,VALID,93.4705,VALID,0,VALID,23.9159,VALID,314,VALID,0.116797,
2012-04-18, 00:25:04,VALID,999.042,VALID,0,VALID,93.44,VALID,0,VALID,23.9354,VALID,314,VALID,0,
2012-04-18, 00:26:04,VALID,999.019,VALID,0,VALID,93.4018,VALID,0,VALID,23.914,VALID,314,VALID,0,
2012-04-18, 00:27:04,VALID,998.998,VALID,0,VALID,93.3713,VALID,0,VALID,23.9354,VALID,314,VALID,0,
2012-04-18, 00:28:04,VALID,999.006,VALID,0,VALID,93.3179,VALID,0,VALID,23.9354,VALID,314,VALID,0,
2012-04-18, 00:29:04,VALID,998.973,VALID,0,VALID,93.234,VALID,0,VALID,23.9549,VALID,314,VALID,0.612891,
2012-04-18, 00:30:04,VALID,998.972,VALID,0,VALID,93.1577,VALID,0,VALID,23.9354,VALID,314,VALID,0.595312,
2012-04-18, 00:31:04,VALID,998.956,VALID,0,VALID,93.0661,VALID,0,VALID,23.9354,VALID,314,VALID,0.633984,
2012-04-18, 00:32:04,VALID,998.926,VALID,0,VALID,92.9288,VALID,0,VALID,23.9354,VALID,314,VALID,0.728516,
2012-04-18, 00:33:04,VALID,998.877,VALID,0,VALID,92.8601,VALID,0,VALID,23.9549,VALID,245,VALID,0.778516,
2012-04-18, 00:34:04,VALID,998.839,VALID,0,VALID,92.7762,VALID,0,VALID,23.9549,VALID,138,VALID,0.736328,
2012-04-18, 00:35:04,VALID,998.814,VALID,0,VALID,92.7228,VALID,0,VALID,23.9336,VALID,145,VALID,0.802344,
2012-04-18, 00:36:04,VALID,998.798,VALID,0,VALID,92.4023,VALID,0,VALID,23.9354,VALID,136,VALID,0.957812,
2012-04-18, 00:37:04,VALID,998.778,VALID,0,VALID,92.0666,VALID,0,VALID,23.9159,VALID,146,VALID,1.36211,
2012-04-18, 00:38:04,VALID,998.808,VALID,0,VALID,91.8454,VALID,0,VALID,23.8963,VALID,146,VALID,1.01484,
2012-04-18, 00:39:04,VALID,998.764,VALID,0,VALID,91.7157,VALID,0,VALID,23.8963,VALID,146,VALID,0.899609,
2012-04-18, 00:40:04,VALID,998.765,VALID,0,VALID,91.6546,VALID,0,VALID,23.8768,VALID,146,VALID,0.877734,
2012-04-18, 00:41:04,VALID,998.785,VALID,0,VALID,91.7767,VALID,0,VALID,23.8768,VALID,146,VALID,1.17734,
2012-04-18, 00:42:04,VALID,998.787,VALID,0,VALID,91.8072,VALID,0,VALID,23.8768,VALID,146,VALID,0.978906,
2012-04-18, 00:43:04,VALID,998.774,VALID,0,VALID,91.7843,VALID,0,VALID,23.8768,VALID,146,VALID,0.889844,
2012-04-18, 00:44:04,VALID,998.752,VALID,0,VALID,91.7309,VALID,0,VALID,23.8573,VALID,154,VALID,1.00234,
2012-04-18, 00:45:04,VALID,998.739,VALID,0,VALID,91.6928,VALID,0,VALID,23.836,VALID,154,VALID,1.15469,
2012-04-18, 00:46:04,VALID,998.746,VALID,0,VALID,91.6394,VALID,0,VALID,23.8573,VALID,160,VALID,0.838672,
2012-04-18, 00:47:04,VALID,998.703,VALID,0,VALID,91.5554,VALID,0,VALID,23.8573,VALID,155,VALID,0.647656,
2012-04-18, 00:48:04,VALID,998.679,VALID,0,VALID,91.5707,VALID,0,VALID,23.8378,VALID,147,VALID,1.06094,
2012-04-18, 00:49:04,VALID,998.709,VALID,0,VALID,91.586,VALID,0,VALID,23.8378,VALID,147,VALID,0.753516,
2012-04-18, 00:50:04,VALID,998.664,VALID,0,VALID,91.5402,VALID,0,VALID,23.8378,VALID,147,VALID,0.819922,
2012-04-18, 00:51:04,VALID,998.657,VALID,0,VALID,91.502,VALID,0,VALID,23.8183,VALID,147,VALID,0.787891,
2012-04-18, 00:52:04,VALID,998.614,VALID,0,VALID,91.4715,VALID,0,VALID,23.8183,VALID,147,VALID,0.778516,
2012-04-18, 00:53:04,VALID,998.57,VALID,0,VALID,91.4334,VALID,0,VALID,23.8183,VALID,147,VALID,0.689453,
2012-04-18, 00:54:04,VALID,998.517,VALID,0,VALID,91.4257,VALID,0,VALID,23.7988,VALID,147,VALID,0.816797,
2012-04-18, 00:55:04,VALID,998.516,VALID,0,VALID,91.4181,VALID,0,VALID,23.7988,VALID,147,VALID,0.830078,
2012-04-18, 00:56:04,VALID,998.467,VALID,0,VALID,91.4105,VALID,0,VALID,23.7988,VALID,147,VALID,0.755469,
2012-04-18, 00:57:04,VALID,998.449,VALID,0,VALID,91.3952,VALID,0,VALID,23.7988,VALID,147,VALID,0.663281,
2012-04-18, 00:58:04,VALID,998.465,VALID,0,VALID,91.3571,VALID,0,VALID,23.7793,VALID,147,VALID,0.637109,
2012-04-18, 00:59:04,VALID,998.445,VALID,0,VALID,91.3571,VALID,0,VALID,23.7793,VALID,146,VALID,0.715234,
2012-04-18, 01:00:04,VALID,998.427,VALID,0,VALID,91.38,VALID,0,VALID,23.7793,VALID,146,VALID,0.737109,
2012-04-18, 01:01:04,VALID,998.379,VALID,0,VALID,91.4181,VALID,0,VALID,23.7988,VALID,146,VALID,0.635547,
2012-04-18, 01:02:04,VALID,998.356,VALID,0,VALID,91.4563,VALID,0,VALID,23.7793,VALID,133,VALID,0.602344,
2012-04-18, 01:03:04,VALID,998.294,VALID,0,VALID,91.4486,VALID,0,VALID,23.7793,VALID,133,VALID,0.433594,
2012-04-18, 01:04:04,VALID,998.265,VALID,0,VALID,91.5097,VALID,0,VALID,23.7597,VALID,133,VALID,0.391016,
2012-04-18, 01:05:04,VALID,998.215,VALID,0,VALID,91.5326,VALID,0,VALID,23.7597,VALID,133,VALID,0.446875,
2012-04-18, 01:06:04,VALID,998.204,VALID,0,VALID,91.586,VALID,0,VALID,23.7189,VALID,133,VALID,0.436328,
2012-04-18, 01:07:04,VALID,998.162,VALID,0,VALID,91.708,VALID,0,VALID,23.7402,VALID,133,VALID,0.349219,
2012-04-18, 01:08:04,VALID,998.165,VALID,0,VALID,91.8301,VALID,0,VALID,23.7384,VALID,133,VALID,0.330078,
2012-04-18, 01:09:04,VALID,998.186,VALID,0,VALID,91.8988,VALID,0,VALID,23.7597,VALID,133,VALID,0.308984,
2012-04-18, 01:10:04,VALID,998.173,VALID,0,VALID,91.9293,VALID,0,VALID,23.7384,VALID,133,VALID,0.408203,
2012-04-18, 01:11:04,VALID,998.145,VALID,0,VALID,91.9522,VALID,0,VALID,23.7597,VALID,133,VALID,0.535937,
2012-04-18, 01:12:04,VALID,998.145,VALID,0,VALID,91.9827,VALID,0,VALID,23.7579,VALID,133,VALID,0.491406,
2012-04-18, 01:13:04,VALID,998.111,VALID,0,VALID,91.9903,VALID,0,VALID,23.7793,VALID,133,VALID,0.511719,
2012-04-18, 01:14:04,VALID,998.114,VALID,0,VALID,92.0056,VALID,0,VALID,23.7793,VALID,133,VALID,0.435156,
2012-04-18, 01:15:04,VALID,998.084,VALID,0,VALID,92.0209,VALID,0,VALID,23.7579,VALID,133,VALID,0.405078,
2012-04-18, 01:16:04,VALID,998.07,VALID,0,VALID,91.9293,VALID,0.104696,VALID,23.7579,VALID,133,VALID,0.366016,
2012-04-18, 01:17:04,VALID,998.051,VALID,0,VALID,91.9827,VALID,0,VALID,23.7402,VALID,133,VALID,0,
2012-04-18, 01:18:04,VALID,998.043,VALID,0,VALID,92.0132,VALID,0,VALID,23.7189,VALID,133,VALID,0,
2012-04-18, 01:19:04,VALID,998.003,VALID,0,VALID,92.0895,VALID,0,VALID,23.7189,VALID,133,VALID,0.00546875,
2012-04-18, 01:20:04,VALID,997.999,VALID,0,VALID,92.1048,VALID,0,VALID,23.6994,VALID,133,VALID,0,
2012-04-18, 01:21:04,VALID,997.976,VALID,0,VALID,92.1048,VALID,0,VALID,23.6817,VALID,133,VALID,0,
2012-04-18, 01:22:04,VALID,997.987,VALID,0,VALID,92.2421,VALID,0,VALID,23.6817,VALID,133,VALID,0,
2012-04-18, 01:23:04,VALID,997.968,VALID,0,VALID,92.3642,VALID,0,VALID,23.6622,VALID,133,VALID,0,
2012-04-18, 01:24:04,VALID,997.949,VALID,0,VALID,92.4328,VALID,0,VALID,23.6622,VALID,133,VALID,0.112109,
2012-04-18, 01:25:04,VALID,997.965,VALID,0,VALID,92.4939,VALID,0,VALID,23.6835,VALID,133,VALID,0,
2012-04-18, 01:26:04,VALID,997.985,VALID,0,VALID,92.5091,VALID,0,VALID,23.6427,VALID,133,VALID,0,
2012-04-18, 01:27:04,VALID,997.998,VALID,0,VALID,92.4863,VALID,0,VALID,23.6036,VALID,133,VALID,0.0296875,
2012-04-18, 01:28:04,VALID,998.043,VALID,0,VALID,92.532,VALID,0,VALID,23.6036,VALID,133,VALID,0.00585938,
2012-04-18, 01:29:04,VALID,998.041,VALID,0,VALID,92.6694,VALID,0,VALID,23.5841,VALID,133,VALID,0,
2012-04-18, 01:30:04,VALID,998.017,VALID,0,VALID,92.7304,VALID,0,VALID,23.5646,VALID,133,VALID,0,
2012-04-18, 01:31:04,VALID,998.031,VALID,0,VALID,92.7991,VALID,0,VALID,23.5646,VALID,133,VALID,0,
2012-04-18, 01:32:04,VALID,998.007,VALID,0,VALID,92.944,VALID,0,VALID,23.5646,VALID,133,VALID,0,
2012-04-18, 01:33:04,VALID,998.06,VALID,0,VALID,92.9822,VALID,0,VALID,23.5646,VALID,133,VALID,0,
2012-04-18, 01:34:04,VALID,998.048,VALID,0,VALID,92.9059,VALID,0,VALID,23.5859,VALID,133,VALID,0,
2012-04-18, 01:35:04,VALID,998.063,VALID,0,VALID,92.7838,VALID,0,VALID,23.5664,VALID,133,VALID,0,
2012-04-18, 01:36:04,VALID,998.068,VALID,0,VALID,92.8677,VALID,0,VALID,23.5646,VALID,133,VALID,0,
2012-04-18, 01:37:04,VALID,998.108,VALID,0,VALID,92.9898,VALID,0,VALID,23.5646,VALID,133,VALID,0,
2012-04-18, 01:38:04,VALID,998.11,VALID,0,VALID,93.0356,VALID,0,VALID,23.5841,VALID,133,VALID,0,
2012-04-18, 01:39:04,VALID,998.117,VALID,0,VALID,93.0051,VALID,0,VALID,23.5841,VALID,133,VALID,0,
2012-04-18, 01:40:04,VALID,998.126,VALID,0,VALID,92.9974,VALID,0,VALID,23.5823,VALID,133,VALID,0,
2012-04-18, 01:41:04,VALID,998.115,VALID,0,VALID,92.9822,VALID,0,VALID,23.6019,VALID,133,VALID,0.0453125,
2012-04-18, 01:42:04,VALID,998.101,VALID,0,VALID,92.9593,VALID,0,VALID,23.6232,VALID,149,VALID,0.810156,
2012-04-18, 01:43:04,VALID,998.082,VALID,0,VALID,92.9059,VALID,0,VALID,23.6427,VALID,149,VALID,0.719141,
2012-04-18, 01:44:04,VALID,998.052,VALID,0,VALID,92.7457,VALID,0,VALID,23.6427,VALID,151,VALID,0.741016,
2012-04-18, 01:45:04,VALID,998.055,VALID,0,VALID,92.4939,VALID,0,VALID,23.6409,VALID,152,VALID,0.857422,
2012-04-18, 01:46:04,VALID,998.053,VALID,0,VALID,92.3108,VALID,0,VALID,23.6427,VALID,148,VALID,1.06328,
2012-04-18, 01:47:04,VALID,998.022,VALID,0,VALID,92.1429,VALID,0,VALID,23.6427,VALID,138,VALID,0.690625,
2012-04-18, 01:48:04,VALID,997.986,VALID,0,VALID,92.0437,VALID,0,VALID,23.6409,VALID,138,VALID,0.591797,
2012-04-18, 01:49:04,VALID,997.976,VALID,0,VALID,91.9827,VALID,0,VALID,23.6214,VALID,138,VALID,0.593359,
2012-04-18, 01:50:04,VALID,997.959,VALID,0,VALID,91.9827,VALID,0,VALID,23.6214,VALID,138,VALID,0.538281,
2012-04-18, 01:51:04,VALID,997.945,VALID,0,VALID,91.9522,VALID,0,VALID,23.6427,VALID,138,VALID,0.528906,
2012-04-18, 01:52:04,VALID,997.937,VALID,0,VALID,91.8911,VALID,0,VALID,23.6427,VALID,138,VALID,0.523438,
2012-04-18, 01:53:04,VALID,997.933,VALID,0,VALID,91.8759,VALID,0,VALID,23.6019,VALID,138,VALID,0.607422,
2012-04-18, 01:54:04,VALID,997.942,VALID,0,VALID,91.8911,VALID,0,VALID,23.6019,VALID,138,VALID,0.637891,
2012-04-18, 01:55:04,VALID,997.945,VALID,0,VALID,91.853,VALID,0,VALID,23.5823,VALID,138,VALID,0.764453,
2012-04-18, 01:56:04,VALID,997.931,VALID,0,VALID,91.8454,VALID,0,VALID,23.6036,VALID,138,VALID,0.807422,
2012-04-18, 01:57:04,VALID,997.948,VALID,0,VALID,91.8683,VALID,0,VALID,23.6036,VALID,138,VALID,0.760156,
2012-04-18, 01:58:04,VALID,997.98,VALID,0,VALID,91.8301,VALID,0,VALID,23.5823,VALID,133,VALID,0.856641,
2012-04-18, 01:59:04,VALID,997.978,VALID,0,VALID,91.7004,VALID,0,VALID,23.5841,VALID,129,VALID,0.646875,
2012-04-18, 02:00:04,VALID,998.005,VALID,0,VALID,91.7004,VALID,0.104696,VALID,23.5628,VALID,129,VALID,0.466797,
2012-04-18, 02:01:04,VALID,997.986,VALID,0,VALID,91.7996,VALID,0,VALID,23.5433,VALID,129,VALID,0.301562,
2012-04-18, 02:02:04,VALID,997.977,VALID,0,VALID,91.8911,VALID,0,VALID,23.5433,VALID,129,VALID,0.239453,
2012-04-18, 02:03:04,VALID,998.007,VALID,0,VALID,91.9217,VALID,0,VALID,23.5451,VALID,129,VALID,0.215625,
2012-04-18, 02:04:04,VALID,997.988,VALID,0,VALID,91.9522,VALID,0,VALID,23.5238,VALID,129,VALID,0.214453,
2012-04-18, 02:05:04,VALID,997.998,VALID,0,VALID,92.0514,VALID,0,VALID,23.5256,VALID,129,VALID,0.355859,
2012-04-18, 02:06:04,VALID,998.009,VALID,0,VALID,92.1429,VALID,0,VALID,23.5043,VALID,129,VALID,0.455078,
2012-04-18, 02:07:04,VALID,997.986,VALID,0,VALID,92.2268,VALID,0,VALID,23.4866,VALID,129,VALID,0.503906,
2012-04-18, 02:08:04,VALID,997.985,VALID,0,VALID,92.3794,VALID,0,VALID,23.4653,VALID,129,VALID,0.533984,
2012-04-18, 02:09:04,VALID,997.987,VALID,0,VALID,92.532,VALID,0,VALID,23.5061,VALID,129,VALID,0.513281,
2012-04-18, 02:10:04,VALID,998.01,VALID,0,VALID,92.5854,VALID,0,VALID,23.4848,VALID,129,VALID,0.439844,
2012-04-18, 02:11:04,VALID,997.981,VALID,0,VALID,92.6694,VALID,0,VALID,23.5256,VALID,129,VALID,0.483594,
2012-04-18, 02:12:04,VALID,998.014,VALID,0,VALID,92.7609,VALID,0,VALID,23.5238,VALID,129,VALID,0.520703,
2012-04-18, 02:13:04,VALID,997.943,VALID,0,VALID,92.8372,VALID,0,VALID,23.5433,VALID,129,VALID,0.39375,
2012-04-18, 02:14:04,VALID,997.931,VALID,0,VALID,92.8296,VALID,0,VALID,23.5646,VALID,129,VALID,0.335938,
2012-04-18, 02:15:04,VALID,997.949,VALID,0,VALID,92.7991,VALID,0,VALID,23.5628,VALID,129,VALID,0.273828,
2012-04-18, 02:16:04,VALID,997.962,VALID,0,VALID,92.6923,VALID,0,VALID,23.5628,VALID,129,VALID,0.205859,
2012-04-18, 02:17:04,VALID,997.996,VALID,0,VALID,92.6694,VALID,0,VALID,23.5628,VALID,129,VALID,0.159375,
2012-04-18, 02:18:04,VALID,998.003,VALID,0,VALID,92.6388,VALID,0,VALID,23.5433,VALID,129,VALID,0,
2012-04-18, 02:19:04,VALID,998.011,VALID,0,VALID,92.5702,VALID,0,VALID,23.5433,VALID,129,VALID,0,
2012-04-18, 02:20:04,VALID,998.051,VALID,0,VALID,92.5473,VALID,0.104696,VALID,23.5238,VALID,129,VALID,0,
2012-04-18, 02:21:04,VALID,998.085,VALID,0,VALID,92.5626,VALID,0.104696,VALID,23.5433,VALID,129,VALID,0,
2012-04-18, 02:22:04,VALID,998.059,VALID,0,VALID,92.6007,VALID,0,VALID,23.5025,VALID,129,VALID,0.127734,
2012-04-18, 02:23:04,VALID,998.073,VALID,0,VALID,92.6236,VALID,0,VALID,23.5043,VALID,129,VALID,0,
2012-04-18, 02:24:04,VALID,998.067,VALID,0,VALID,92.6617,VALID,0,VALID,23.5043,VALID,134,VALID,0.564062,
2012-04-18, 02:25:04,VALID,998.015,VALID,0,VALID,92.6694,VALID,0,VALID,23.5043,VALID,143,VALID,0.274609,
2012-04-18, 02:26:04,VALID,998.035,VALID,0,VALID,92.6312,VALID,0,VALID,23.5043,VALID,143,VALID,0.325391,
2012-04-18, 02:27:04,VALID,998.044,VALID,0,VALID,92.5931,VALID,0.104696,VALID,23.5256,VALID,143,VALID,0.262891,
2012-04-18, 02:28:04,VALID,998.042,VALID,0,VALID,92.5397,VALID,0,VALID,23.4848,VALID,143,VALID,0.389844,
2012-04-18, 02:29:04,VALID,998.036,VALID,0,VALID,92.5397,VALID,0,VALID,23.4848,VALID,143,VALID,0.721094,
2012-04-18, 02:30:04,VALID,998.024,VALID,0,VALID,92.5626,VALID,0,VALID,23.5043,VALID,143,VALID,0.632422,
2012-04-18, 02:31:04,VALID,998.039,VALID,0,VALID,92.5244,VALID,0,VALID,23.5043,VALID,143,VALID,0.828906,
2012-04-18, 02:32:04,VALID,998.061,VALID,0,VALID,92.3642,VALID,0,VALID,23.5238,VALID,143,VALID,0.74375,
2012-04-18, 02:33:04,VALID,998.07,VALID,0,VALID,92.2421,VALID,0,VALID,23.5238,VALID,143,VALID,0.880859,
2012-04-18, 02:34:04,VALID,998.072,VALID,0,VALID,92.1811,VALID,0,VALID,23.5433,VALID,143,VALID,0.791406,
2012-04-18, 02:35:04,VALID,998.09,VALID,0,VALID,92.12,VALID,0,VALID,23.5256,VALID,143,VALID,0.809375,
2012-04-18, 02:36:04,VALID,998.064,VALID,0,VALID,92.0437,VALID,0,VALID,23.5061,VALID,143,VALID,0.619141,
2012-04-18, 02:37:04,VALID,998.055,VALID,0,VALID,91.9674,VALID,0,VALID,23.5061,VALID,143,VALID,0.508594,
2012-04-18, 02:38:04,VALID,998.039,VALID,0,VALID,91.9217,VALID,0,VALID,23.4866,VALID,143,VALID,0.346875,
2012-04-18, 02:39:04,VALID,998.059,VALID,0,VALID,91.914,VALID,0,VALID,23.4671,VALID,143,VALID,0.56875,
2012-04-18, 02:40:04,VALID,998.046,VALID,0,VALID,91.8835,VALID,0,VALID,23.4671,VALID,143,VALID,0.425,
2012-04-18, 02:41:04,VALID,998.046,VALID,0,VALID,91.853,VALID,0,VALID,23.428,VALID,143,VALID,0.678516,
2012-04-18, 02:42:04,VALID,998.093,VALID,0,VALID,91.8759,VALID,0,VALID,23.4085,VALID,143,VALID,0.274609,
2012-04-18, 02:43:04,VALID,998.103,VALID,0,VALID,91.9674,VALID,0,VALID,23.4103,VALID,143,VALID,0.557422,
2012-04-18, 02:44:04,VALID,998.061,VALID,0,VALID,92.0666,VALID,0,VALID,23.3908,VALID,126,VALID,0.801172,
2012-04-18, 02:45:04,VALID,998.092,VALID,0,VALID,92.1734,VALID,0,VALID,23.3908,VALID,113,VALID,0.790625,
2012-04-18, 02:46:04,VALID,998.086,VALID,0,VALID,92.2268,VALID,0,VALID,23.3695,VALID,113,VALID,0.659375,
2012-04-18, 02:47:04,VALID,998.084,VALID,0,VALID,92.2421,VALID,0,VALID,23.3908,VALID,113,VALID,0.453125,
2012-04-18, 02:48:04,VALID,998.064,VALID,0,VALID,92.2497,VALID,0,VALID,23.3713,VALID,113,VALID,0.310937,
2012-04-18, 02:49:04,VALID,998.051,VALID,0,VALID,92.2268,VALID,0,VALID,23.3305,VALID,113,VALID,0.0664063,
2012-04-18, 02:50:04,VALID,998.086,VALID,0,VALID,92.2268,VALID,0,VALID,23.3305,VALID,113,VALID,0.231641,
2012-04-18, 02:51:04,VALID,998.07,VALID,0,VALID,92.2497,VALID,0,VALID,23.3092,VALID,113,VALID,0.171484,
2012-04-18, 02:52:04,VALID,998.074,VALID,0,VALID,92.3489,VALID,0,VALID,23.2897,VALID,113,VALID,0.101172,
2012-04-18, 02:53:04,VALID,998.078,VALID,0,VALID,92.41,VALID,0,VALID,23.2702,VALID,113,VALID,0,
2012-04-18, 02:54:04,VALID,998.105,VALID,0,VALID,92.4634,VALID,0.104696,VALID,23.2702,VALID,113,VALID,0,
2012-04-18, 02:55:04,VALID,998.047,VALID,0,VALID,92.5397,VALID,0,VALID,23.2719,VALID,113,VALID,0.00351562,
2012-04-18, 02:56:04,VALID,998.075,VALID,0,VALID,92.6236,VALID,0,VALID,23.2507,VALID,113,VALID,0.0628906,
2012-04-18, 02:57:04,VALID,998.04,VALID,0,VALID,92.677,VALID,0,VALID,23.2312,VALID,113,VALID,0.116016,
2012-04-18, 02:58:04,VALID,998.05,VALID,0,VALID,92.6846,VALID,0,VALID,23.2312,VALID,113,VALID,0,
2012-04-18, 02:59:04,VALID,998.057,VALID,0,VALID,92.6923,VALID,0,VALID,23.2507,VALID,113,VALID,0,
2012-04-18, 03:00:04,VALID,998.043,VALID,0,VALID,92.6694,VALID,0,VALID,23.2312,VALID,113,VALID,0,
2012-04-18, 03:01:04,VALID,998.054,VALID,0,VALID,92.6999,VALID,0,VALID,23.2329,VALID,113,VALID,0,
2012-04-18, 03:02:04,VALID,998.067,VALID,0,VALID,92.6923,VALID,0,VALID,23.2117,VALID,113,VALID,0.00195313,
2012-04-18, 03:03:04,VALID,998.076,VALID,0,VALID,92.6923,VALID,0,VALID,23.2117,VALID,113,VALID,0.457422,
2012-04-18, 03:04:04,VALID,998.09,VALID,0,VALID,92.6846,VALID,0,VALID,23.2312,VALID,113,VALID,0.765625,
2012-04-18, 03:05:04,VALID,998.101,VALID,0,VALID,92.6694,VALID,0.104696,VALID,23.2117,VALID,113,VALID,0.738281,
2012-04-18, 03:06:04,VALID,998.066,VALID,0,VALID,92.5244,VALID,0,VALID,23.2117,VALID,113,VALID,0.779297,
2012-04-18, 03:07:04,VALID,998.091,VALID,0,VALID,92.4252,VALID,0,VALID,23.2117,VALID,106,VALID,0.876172,
2012-04-18, 03:08:04,VALID,998.058,VALID,0,VALID,92.3871,VALID,0,VALID,23.1921,VALID,109,VALID,0.892578,
2012-04-18, 03:09:04,VALID,998.038,VALID,0,VALID,92.471,VALID,0,VALID,23.1726,VALID,113,VALID,0.985156,
2012-04-18, 03:10:04,VALID,997.997,VALID,0,VALID,92.5931,VALID,0,VALID,23.1939,VALID,108,VALID,1.04531,
2012-04-18, 03:11:04,VALID,997.957,VALID,0,VALID,92.6388,VALID,0,VALID,23.1939,VALID,113,VALID,1.22266,
2012-04-18, 03:12:04,VALID,997.951,VALID,0,VALID,92.6083,VALID,0,VALID,23.1921,VALID,111,VALID,1.17852,
2012-04-18, 03:13:04,VALID,997.986,VALID,0,VALID,92.5626,VALID,0,VALID,23.1921,VALID,114,VALID,0.946094,
2012-04-18, 03:14:04,VALID,997.956,VALID,0,VALID,92.4939,VALID,0,VALID,23.2117,VALID,118,VALID,0.871484,
2012-04-18, 03:15:04,VALID,997.983,VALID,0,VALID,92.4328,VALID,0,VALID,23.2117,VALID,109,VALID,0.380078,
2012-04-18, 03:16:04,VALID,997.982,VALID,0,VALID,92.3718,VALID,0,VALID,23.2117,VALID,109,VALID,0.634766,
2012-04-18, 03:17:04,VALID,997.978,VALID,0,VALID,92.3184,VALID,0,VALID,23.2524,VALID,102,VALID,1.20273,
2012-04-18, 03:18:04,VALID,997.985,VALID,0,VALID,92.2497,VALID,0,VALID,23.2312,VALID,94,VALID,0.721875,
2012-04-18, 03:19:04,VALID,998.013,VALID,0,VALID,92.1582,VALID,0,VALID,23.2312,VALID,94,VALID,0,
2012-04-18, 03:20:04,VALID,998.041,VALID,0,VALID,92.0743,VALID,0,VALID,23.2312,VALID,94,VALID,0,
2012-04-18, 03:21:04,VALID,998.041,VALID,0,VALID,92.0437,VALID,0,VALID,23.2329,VALID,94,VALID,0,
2012-04-18, 03:22:04,VALID,998.066,VALID,0,VALID,91.9827,VALID,0,VALID,23.2312,VALID,94,VALID,0,
2012-04-18, 03:23:04,VALID,998.054,VALID,0,VALID,91.9903,VALID,0,VALID,23.1921,VALID,94,VALID,0,
2012-04-18, 03:24:04,VALID,998.07,VALID,0,VALID,92.0056,VALID,0,VALID,23.1726,VALID,94,VALID,0,
2012-04-18, 03:25:04,VALID,998.046,VALID,0,VALID,92.0437,VALID,0,VALID,23.1531,VALID,94,VALID,0,
2012-04-18, 03:26:04,VALID,998.052,VALID,0,VALID,92.1429,VALID,0,VALID,23.1531,VALID,94,VALID,0,
2012-04-18, 03:27:04,VALID,998.024,VALID,0,VALID,92.2345,VALID,0,VALID,23.1531,VALID,94,VALID,0,
2012-04-18, 03:28:04,VALID,998.017,VALID,0,VALID,92.3108,VALID,0,VALID,23.1141,VALID,94,VALID,0,
2012-04-18, 03:29:04,VALID,998.026,VALID,0,VALID,92.3337,VALID,0,VALID,23.1549,VALID,94,VALID,0,
2012-04-18, 03:30:04,VALID,997.995,VALID,0,VALID,92.3489,VALID,0,VALID,23.1354,VALID,94,VALID,0,
2012-04-18, 03:31:04,VALID,997.996,VALID,0,VALID,92.3108,VALID,0,VALID,23.1354,VALID,94,VALID,0,
2012-04-18, 03:32:04,VALID,997.99,VALID,0,VALID,92.326,VALID,0,VALID,23.1336,VALID,94,VALID,0,
2012-04-18, 03:33:04,VALID,997.99,VALID,0,VALID,92.3489,VALID,0,VALID,23.1549,VALID,94,VALID,0,
2012-04-18, 03:34:04,VALID,997.949,VALID,0,VALID,92.3031,VALID,0,VALID,23.1354,VALID,94,VALID,0,
2012-04-18, 03:35:04,VALID,997.964,VALID,0,VALID,92.204,VALID,0,VALID,23.1141,VALID,94,VALID,0,
2012-04-18, 03:36:04,VALID,997.944,VALID,0,VALID,92.1124,VALID,0,VALID,23.1176,VALID,94,VALID,0,
2012-04-18, 03:37:04,VALID,997.915,VALID,0,VALID,92.0819,VALID,0,VALID,23.0769,VALID,94,VALID,0,
2012-04-18, 03:38:04,VALID,997.921,VALID,0,VALID,92.0819,VALID,0,VALID,23.0378,VALID,94,VALID,0,
2012-04-18, 03:39:04,VALID,997.911,VALID,0,VALID,92.1887,VALID,0,VALID,23.0378,VALID,94,VALID,0,
2012-04-18, 03:40:04,VALID,997.927,VALID,0,VALID,92.2421,VALID,0,VALID,23.0183,VALID,94,VALID,0,
2012-04-18, 03:41:04,VALID,997.949,VALID,0,VALID,92.2421,VALID,0,VALID,22.9988,VALID,94,VALID,0,
2012-04-18, 03:42:04,VALID,998.006,VALID,0,VALID,92.2726,VALID,0,VALID,22.9793,VALID,94,VALID,0,
2012-04-18, 03:43:04,VALID,997.983,VALID,0,VALID,92.4328,VALID,0,VALID,22.9793,VALID,94,VALID,0.13125,
2012-04-18, 03:44:04,VALID,997.971,VALID,0,VALID,92.6007,VALID,0,VALID,22.9793,VALID,94,VALID,0.332031,
2012-04-18, 03:45:04,VALID,997.998,VALID,0,VALID,92.6923,VALID,0,VALID,22.9988,VALID,94,VALID,0.348047,
2012-04-18, 03:46:04,VALID,997.965,VALID,0,VALID,92.738,VALID,0,VALID,22.9988,VALID,94,VALID,0.372656,
2012-04-18, 03:47:04,VALID,997.969,VALID,0,VALID,92.7685,VALID,0,VALID,23.0396,VALID,132,VALID,0.628125,
2012-04-18, 03:48:04,VALID,997.956,VALID,0,VALID,92.7151,VALID,0,VALID,23.0378,VALID,134,VALID,0.354297,